This is the latest recevied weather packets stored in our database for station/object KB9MLJ. If no packets are shown the sender has not sent any weather packets the latest 10 day(s).
| Time | Temp. | Humidity | Pressure | Rain* | Wind** | Luminosity | Snow |
|---|---|---|---|---|---|---|---|
| 1777574366 | 15° C | 46% | 1015.4 hPa | 0 mm | - | 656 W/m² | - |
| 1777574061 | 15° C | 44% | 1015.4 hPa | 0 mm | - | 221 W/m² | - |
| 1777573757 | 15.56° C | 43% | 1015.4 hPa | 0 mm | - | 353 W/m² | - |
| 1777573453 | 16.11° C | 44% | 1015.4 hPa | 0 mm | - | 384 W/m² | - |
| 1777573149 | 15° C | 46% | 1015.4 hPa | 0 mm | - | 411 W/m² | - |
| 1777572845 | 15° C | 44% | 1015.4 hPa | 0 mm | - | 267 W/m² | - |
| 1777572542 | 15.56° C | 42% | 1015.4 hPa | 0 mm | - | 773 W/m² | - |
| 1777572237 | 15.56° C | 44% | 1015.4 hPa | 0 mm | - | 360 W/m² | - |
| 1777571933 | 16.67° C | 42% | 1015.4 hPa | 0 mm | - | 764 W/m² | - |
| 1777571628 | 15.56° C | 46% | 1015.7 hPa | 0 mm | - | 754 W/m² | - |
| 1777571325 | 15° C | 46% | 1015.7 hPa | 0 mm | - | 773 W/m² | - |
| 1777571021 | 14.44° C | 46% | 1015.7 hPa | 0 mm | - | 579 W/m² | - |
| 1777570717 | 15.56° C | 45% | 1015.7 hPa | 0 mm | - | 257 W/m² | - |
| 1777570414 | 15° C | 45% | 1016.1 hPa | 0 mm | - | 759 W/m² | - |
| 1777570110 | 15.56° C | 46% | 1016.1 hPa | 0 mm | - | 724 W/m² | - |
| 1777569806 | 14.44° C | 48% | 1016.1 hPa | 0 mm | - | 785 W/m² | - |
| 1777569502 | 13.89° C | 47% | 1016.4 hPa | 0 mm | - | 784 W/m² | - |
| 1777569199 | 14.44° C | 47% | 1016.4 hPa | 0 mm | - | 323 W/m² | - |
| 1777568895 | 15° C | 47% | 1016.4 hPa | 0 mm | - | 422 W/m² | - |
| 1777568592 | 13.89° C | 47% | 1016.4 hPa | 0 mm | - | 765 W/m² | - |
| 1777568289 | 13.89° C | 48% | 1016.4 hPa | 0 mm | - | 696 W/m² | - |
| 1777567985 | 13.89° C | 47% | 1016.4 hPa | 0 mm | - | 718 W/m² | - |
| 1777567682 | 13.89° C | 50% | 1016.4 hPa | 0 mm | - | 703 W/m² | - |
| 1777567379 | 13.89° C | 50% | 1016.4 hPa | 0 mm | - | 685 W/m² | - |
| 1777567077 | 13.89° C | 49% | 1016.4 hPa | 0 mm | - | 594 W/m² | - |
* Rain latest hour (hover to see other rain measurements)
** Current wind speed in m/s (hover to see current wind gust speed)